{"data":{"norad_id":68489,"intl_designator":"2026-067CB","name":"LEMUR-2-CARROLLEMO","alt_names":[],"object_type":"PAYLOAD","status":"ACTIVE","operator":null,"country":"GER","launch_date":"2026-03-30","launch_site_code":"AFWTR","launch_vehicle":null,"mission":null,"orbit_class":"UNKNOWN","rcs_meters":null,"size_class":null,"mass_kg":null,"dimensions":null,"purposes":[],"wikipedia_slug":null,"has_3d_model":false,"image_url":null,"decayed_at":null,"tle_current":{"epoch":"2026-05-24T20:30:29.867904Z","epoch_age_seconds":84292,"freshness":"FRESH","line1":"1 68489U 26067CB  26144.85451236  .00002542  00000+0  25971-3 0  9996","line2":"2 68489  97.7522 103.3984 0003442 117.5644 242.5925 14.91467167  8247","mean_motion":14.91467167,"eccentricity":0.0003442,"inclination_deg":97.7522,"raan_deg":103.3984,"arg_perigee_deg":117.5644,"mean_anomaly_deg":242.5925,"bstar":0.00025971,"rev_number":824,"period_min":96.549225612286,"perigee_km":590.96038364695,"apogee_km":595.75956216309,"semimajor_km":6971.496972905,"source":"CELESTRAK","updated_at":"2026-05-25T13:38:07.874151Z"}}}